Regional Weather Roundup
Issued by NWS Jackson, KY

Home | Current Version | Previous Version | Graphics & Text | Print | Product List | Glossary On
Versions: 1 2 3 4 5 6 7 8 9 10 11 12 13 14 15 16 17 18 19 20 21 22 23 24 25 26 27 28 29 30 31 32 33 34 35 36 37 38 39 40 41 42 43 44 45 46 47 48 49 50
000
ASUS43 KJKL 182211
RWRJKL

EAST KENTUCKY HOURLY WEATHER ROUNDUP
NATIONAL WEATHER SERVICE JACKSON KY
600 PM EDT FRI APR 18 2014

NOTE: "FAIR" INDICATES FEW OR NO CLOUDS BELOW 12,000 FEET WITH
NO SIGNIFICANT WEATHER AND/OR OBSTRUCTIONS TO VISIBILITY.

* THESE REPORTS ARE NOT UNDER NWS QUALITY CONTROL AND MAY NOT
  REPORT WEATHER SUCH AS PRECIPITATION AND FOG.

KYZ079-080-083-085-087-088-110-112-115-119-120-182300
...EASTERN KENTUCKY...

CITY           SKY/WX    TMP DP  RH WIND       PRES   REMARKS
JACKSON        CLOUDY    70  37  29 CALM      30.21F
LONDON         CLOUDY    69  39  33 CALM      30.20F
SOMERSET*      PTSUNNY   66  39  37 N3        30.21F
MONTICELLO*    CLOUDY    67  46  46 E7        30.22F
WILLIAMSBURG*  SUNNY     64  41  42 E3        30.21
MIDDLESBORO*   CLOUDY    66  39  37 CALM      30.21F
HARLAN APT*    CLOUDY    64  34  32 NE3       30.21F
BLACK MTN*       N/A     54  37  54 VRB1        N/A
BIG SANDY*     CLOUDY    69  37  30 CALM      30.20F
MOREHEAD APT*  CLEAR     68  37  32 W5        30.23F
$$

KYZ035-036-041-042-044-050-067-078-099-182300
...CENTRAL KENTUCKY...

CITY           SKY/WX    TMP DP  RH WIND       PRES   REMARKS
MT STERLING*   MOSUNNY   68  39  34 N5        30.23F
FLEMING/MASON* SUNNY     68  37  32 N7        30.23F
DANVILLE*      PTSUNNY   66  43  42 CALM      30.22F
LEXINGTON      PTSUNNY   68  40  35 NW5       30.22F
FRANKFORT      CLOUDY    68  38  33 NW6       30.21F
$$

KYZ091>093-OHZ055-061-077-WVZ005-015-034-035-042-182300
...SOUTHERN OHIO/WEST VIRGINIA...

CITY           SKY/WX    TMP DP  RH WIND       PRES   REMARKS
COVINGTON      PTSUNNY   69  35  28 NE6       30.22F
COLUMBUS       CLOUDY    68  35  29 W8        30.22S
DAYTON         PTSUNNY   69  39  33 W8        30.23F
WILMINGTON     CLOUDY    66  35  31 CALM      30.22F
HUNTINGTON     PTSUNNY   71  33  24 W9        30.18F
CHARLESTON     CLOUDY    71  37  28 SW3       30.18F
PINEVILLE*     CLOUDY    68  37  32 MISG      30.25F
BECKLEY        CLOUDY    63  27  25 W5        30.22F
BLUEFIELD      CLOUDY    62  29  28 SE5       30.24F
$$

VAZ002-007-008-TNZ017-027-036-066-071-182300
...SOUTHWEST VIRGINIA/EAST TENNESSEE...

CITY           SKY/WX    TMP DP  RH WIND       PRES   REMARKS
WISE*          CLOUDY    61  34  36 NE3       30.25S
ABINGDON*      CLOUDY    61  33  34 CALM      30.24S
BRISTOL        CLOUDY    62  32  32 CALM      30.23F
KNOXVILLE      CLOUDY    61  41  47 NE10      30.20F
OAK RIDGE      CLOUDY    65  39  38 E9        30.21F
CROSSVILLE     CLOUDY    62  40  44 NE9       30.20F
NASHVILLE      CLOUDY    68  47  46 NE8       30.18F
$$

...KEY TO REMARKS...
VSB - VISIBILITY IN MILES
WCI - WIND CHILL INDEX
HX  - HEAT INDEX

$$



USA.gov is the U.S. government's official web portal to all federal, state and local government web resources and services.